[[{"header":{"parameterUnit":"m.s-1","parameterCategory":1,"la1":30.2991,"la2":30.254,"lo1":-89.0895,"lo2":-89.0444,"dy":0.0017,"dx":0.0017,"nx":28,"ny":28,"refTime":"2024-02-29T09:00:00:Z","depth":0,"parameterNumber":2,"parameterNumberName":"U-component_of_WINDS"},"data":[0,0,0,0,0,0,0,0,0,0,0,0,0,0,0,0,0,0,0,0,0,0,0,0,0,0,0,0,0,0,0,0,0,0,0,0,0,0,0,0,0,0,0,0,0,0,0,0,0,0,0,0,0,0,0,0,0,0,-3.733,-3.7332,0,-3.7456,-3.7457,-3.7459,-3.7411,-3.7408,-3.7406,-3.7403,-3.7535,-3.7541,-3.7547,0,0,0,0,0,0,0,0,0,0,0,0,0,-3.7052,-3.7057,-3.733,-3.7332,-3.7333,-3.7456,-3.7457,-3.7459,-3.7412,-3.7408,-3.7405,-3.7402,-3.7533,-3.754,-3.7548,0,0,0,0,0,0,0,0,0,0,0,0,0,-3.7175,-3.7059,-3.733,-3.7324,-3.7325,-3.7455,-3.7457,-3.746,-3.7413,-3.7408,-3.7404,-3.74,-3.7531,-3.754,-3.7549,-3.7693,0,0,-3.7577,-3.7581,0,0,0,0,0,0,0,0,-3.7168,-3.7185,-3.7324,-3.7325,-3.7326,-3.7413,-3.7408,-3.7538,-3.7414,-3.738,-3.7403,-3.7398,-3.7498,-3.751,-3.7543,-3.7699,-3.7705,-3.7578,-3.7584,-3.7588,-3.759,0,0,0,0,0,0,0,-3.7159,-3.7179,-3.738,-3.7326,-3.7327,-3.7316,-3.7329,-3.7432,-3.7462,-3.7382,-3.7379,-3.7394,-3.7498,-3.7534,-3.7546,-3.7707,-3.7578,-3.7586,-3.7592,-3.7595,-3.7987,-3.7992,0,0,0,0,0,0,-3.715,-3.7172,-3.7376,-3.7384,-3.7234,-3.7325,-3.7339,-3.739,-3.746,-3.7467,-3.7398,-3.7392,-3.7521,-3.7535,-3.755,-3.7724,-3.7588,-3.7596,-3.7602,-3.7982,-3.7988,-3.7993,0,0,0,0,0,0,-3.7144,-3.7168,-3.7371,-3.7277,-3.7302,-3.7334,-3.7392,-3.7395,-3.7431,-3.7472,-3.7478,-3.7429,-3.7518,-3.7537,-3.7658,-3.7728,-3.7601,-3.7609,-3.7977,-3.7984,-3.7991,-3.8073,0,0,0,0,0,0,-3.7136,-3.7167,-3.7221,-3.7279,-3.7307,-3.7476,-3.7396,-3.74,-3.7446,-3.744,-3.7503,-3.751,-3.7516,-3.7644,-3.7667,-3.7739,-3.7616,-3.7971,-3.798,-3.7989,-3.8064,-3.8082,-3.8098,0,0,0,0,0,-3.7126,-3.724,-3.7224,-3.7249,-3.7376,-3.748,-3.7496,-3.75,-3.7452,-3.7508,-3.7534,-3.7508,-3.7716,-3.7657,-3.7682,-3.7758,-3.7966,-3.7977,-3.7988,-3.8057,-3.8079,-3.8097,0,0,0,0,0,0,-3.7192,-3.7248,-3.7231,-3.7366,-3.7418,-3.7471,-3.7542,-3.7523,-3.7591,-3.7582,-3.7584,-3.7599,-3.7723,-3.7752,-3.7685,-3.7901,-3.7834,-3.7851,-3.7878,-3.7899,-3.7915,-3.7907,-3.7624,0,0,0,0,0,-3.7221,-3.73,-3.7345,-3.746,-3.7487,-3.751,-3.7555,-3.7553,-3.7608,-3.763,-3.7666,-3.7721,-3.7798,-3.785,-3.7924,-3.8067,-3.8081,-3.8132,-3.8148,-3.8162,-3.8177,-3.8255,-3.8279,-3.8029,-3.8029,-3.8029,0,0,-3.7285,-3.7325,-3.7375,-3.7474,-3.7515,-3.7597,-3.7529,-3.7619,-3.768,-3.7644,-3.776,-3.7788,-3.7849,-3.7982,-3.8042,-3.801,-3.8248,-3.8176,-3.8186,-3.8194,-3.8269,-3.8293,-3.8314,-3.8036,-3.8035,-3.8034,0,0,-3.7442,-3.748,-3.758,-3.7621,-3.7683,-3.7697,-3.7721,-3.7777,-3.7794,-3.7909,-3.7884,-3.7957,-3.8091,-3.8136,-3.8176,-3.8349,-3.8327,-3.8373,-3.8461,-3.8538,-3.8557,-3.8575,-3.8638,-3.866,-3.8387,-3.8387,-3.8388,0,-3.7513,-3.7635,-3.7634,-3.7726,-3.7771,-3.7741,-3.7843,-3.7883,-3.7966,-3.7998,-3.796,-3.8127,-3.8167,-3.831,-3.8351,-3.8385,-3.8413,-3.8367,-3.8554,-3.8572,-3.8588,-3.8648,-3.8672,-3.8393,-3.8392,-3.8392,-3.8391,0,-3.772,-3.7805,-3.7879,-3.7959,-3.8011,-3.8108,-3.8123,-3.8176,-3.8169,-3.8188,-3.8306,-3.8352,-3.8435,-3.8468,-3.8462,-3.861,-3.8588,-3.8553,-3.8486,-3.8617,-3.8674,-3.8697,-3.84,-3.8398,-3.8397,-3.8396,0,0,-3.7925,-3.8001,-3.8028,-3.8064,-3.8129,-3.8195,-3.829,-3.8369,-3.8416,-3.8473,-3.8554,-3.8667,-3.8634,-3.868,-3.8679,-3.8746,-3.8881,-3.8702,-3.8704,-3.8735,-3.9048,-3.9076,-3.9103,-3.8866,-3.887,-3.8874,-3.9043,0,-3.8088,-3.8255,-3.8256,-3.841,-3.8488,-3.846,-3.8542,-3.8591,-3.8611,-3.8681,-3.8702,-3.8783,-3.8733,-3.876,-3.8825,-3.8851,-3.8945,-3.8839,-3.8943,-3.8946,-3.893,-3.9132,-3.9162,-3.932,-3.9065,-3.9069,-3.9072,0,-3.8302,-3.8365,-3.8527,-3.8579,-3.8612,-3.8687,-3.876,-3.8827,-3.8882,-3.8891,-3.8941,-3.893,-3.9028,-3.8956,-3.9091,-3.9019,-3.9061,-3.9081,-3.9087,-3.9099,-3.9019,-3.9151,-3.937,-3.9395,-3.9106,-3.9103,-3.9101,0,-3.8437,-3.8562,-3.8675,-3.8706,-3.877,-3.8823,-3.8852,-3.8903,-3.895,-3.9014,-3.9045,-3.912,-3.9161,-3.9219,-3.9229,-3.9175,-3.9365,-3.9294,-3.9377,-3.9377,-3.942,-3.9417,-3.9651,-3.9444,-3.9444,-3.9443,-3.9443,0,-3.8621,-3.8721,-3.8736,-3.8806,-3.8917,-3.8917,-3.9028,-3.9053,-3.9098,-3.9172,-3.9151,-3.9222,-3.9229,-3.9301,-3.9309,-3.9421,-3.9439,-3.945,-3.9452,-3.9453,-3.9452,-3.9483,-3.9473,-3.9449,-3.9448,-3.9447,-3.9446,0,-3.8791,-3.8805,-3.8926,-3.8976,-3.8991,-3.9071,-3.9114,-3.9181,-3.9197,-3.9291,-3.9313,-3.934,-3.9424,-3.9438,-3.9538,-3.9543,-3.9677,-3.9666,-3.9659,-3.9658,-3.974,-3.9733,-4.0004,-4.0039,-3.9807,-3.9809,-3.9811,0,-3.8909,-3.8985,-3.9042,-3.909,-3.9122,-3.9199,-3.9247,-3.925,-3.9301,-3.9368,-3.9427,-3.9509,-3.9575,-3.9712,-3.974,-3.9816,-3.9808,-3.9898,-3.982,-3.9819,-3.9812,-3.9808,-3.9816,-3.9914,-3.9916,-3.9918,-3.992,0,-3.9116,-3.9119,-3.9188,-3.9261,-3.9318,-3.9375,-3.9429,-3.947,-3.948,-3.9538,-3.9624,-3.9675,-3.9776,-3.9858,-3.9933,-3.9964,-3.9945,-3.9944,-3.9967,-3.9971,-3.9964,-3.997,-3.9701,-3.9938,-3.9936,-3.9935,-3.9934,-3.9933,-3.9265,-3.9331,-3.9382,-3.946,-3.95,-3.9551,-3.9616,-3.964,-3.9711,-3.9793,-3.979,-3.9884,-3.9936,-4.0035,-4.0071,-4.0145,-4.0117,-4.015,-4.0159,-4.0168,-4.0177,-3.995,-4.0159,-4.0158,-4.0158,-4.0157,-4.0157,0,-3.9472,-3.9503,-3.9575,-3.965,-3.9712,-3.9685,-3.9744,-3.9798,-3.988,-3.993,-3.9995,-4.0093,-4.0172,-4.0206,-4.0284,-4.0337,-4.033,-4.0358,-4.0355,-4.0363,-4.0197,-4.017,-4.0362,-4.0362,-4.0362,-4.0362,-4.0362,-4.0362,-3.9588,-3.9699,-3.9707,-3.9838,-3.9868,-3.996,-3.9995,-4.0042,-4.0082,-4.0192,-4.0258,-4.0278,-4.0322,-4.0403,-4.0475,-4.0482,-4.0513,-4.0545,-4.0549,-4.0395,-4.0374,-4.0354,-4.0329,-4.0551,-4.0551,-4.0709,-4.071,-4.0711]},{"header":{"parameterUnit":"m.s-1","parameterCategory":1,"la1":30.2991,"la2":30.254,"lo1":-89.0895,"lo2":-89.0444,"dy":0.0017,"dx":0.0017,"nx":28,"ny":28,"refTime":"2024-02-29T09:00:00:Z","depth":0,"parameterNumber":3,"parameterNumberName":"V-component_of_WINDS"},"data":[0,0,0,0,0,0,0,0,0,0,0,0,0,0,0,0,0,0,0,0,0,0,0,0,0,0,0,0,0,0,0,0,0,0,0,0,0,0,0,0,0,0,0,0,0,0,0,0,0,0,0,0,0,0,0,0,0,0,-6.7454,-6.7454,0,-6.7506,-6.7507,-6.7508,-6.7402,-6.7399,-6.7396,-6.7392,-6.7443,-6.7447,-6.7452,0,0,0,0,0,0,0,0,0,0,0,0,0,-6.7257,-6.7262,-6.7454,-6.7454,-6.7455,-6.7506,-6.7507,-6.7508,-6.7403,-6.7399,-6.7395,-6.7391,-6.7441,-6.7447,-6.7452,0,0,0,0,0,0,0,0,0,0,0,0,0,-6.733,-6.7263,-6.7453,-6.7409,-6.7405,-6.7506,-6.7507,-6.7508,-6.7404,-6.7399,-6.7394,-6.7389,-6.744,-6.7446,-6.7453,-6.7598,0,0,-6.7474,-6.7477,0,0,0,0,0,0,0,0,-6.7326,-6.7337,-6.7415,-6.7412,-6.7409,-6.7443,-6.7456,-6.7538,-6.7405,-6.7404,-6.7392,-6.7386,-6.7447,-6.7453,-6.7474,-6.7601,-6.7603,-6.7474,-6.7479,-6.7482,-6.7483,0,0,0,0,0,0,0,-6.7321,-6.7334,-6.7474,-6.7416,-6.7412,-6.7385,-6.7389,-6.7471,-6.7454,-6.7404,-6.7397,-6.7404,-6.7444,-6.7467,-6.7474,-6.7604,-6.7474,-6.748,-6.7485,-6.7487,-6.785,-6.7856,0,0,0,0,0,0,-6.7322,-6.7331,-6.7473,-6.7476,-6.7354,-6.7393,-6.7398,-6.7437,-6.7453,-6.745,-6.7409,-6.7399,-6.7458,-6.7466,-6.7476,-6.7646,-6.7482,-6.7488,-6.7492,-6.7845,-6.7852,-6.7858,0,0,0,0,0,0,-6.7318,-6.7336,-6.747,-6.7401,-6.7416,-6.7401,-6.7446,-6.7441,-6.7464,-6.7456,-6.7452,-6.7436,-6.7455,-6.7466,-6.7568,-6.7646,-6.7491,-6.7497,-6.7838,-6.7847,-6.7855,-6.7989,0,0,0,0,0,0,-6.7313,-6.7335,-6.7391,-6.7403,-6.742,-6.7564,-6.7451,-6.7445,-6.7476,-6.7465,-6.7481,-6.7479,-6.7451,-6.7559,-6.7575,-6.7653,-6.7503,-6.7831,-6.7842,-6.7852,-6.7977,-6.8,-6.802,0,0,0,0,0,-6.7306,-6.7426,-6.7395,-6.7412,-6.7491,-6.7569,-6.7579,-6.7546,-6.7483,-6.7539,-6.7533,-6.7478,-6.7635,-6.757,-6.7588,-6.7669,-6.7826,-6.7839,-6.7851,-6.7967,-6.7996,-6.802,0,0,0,0,0,0,-6.7423,-6.7427,-6.7392,-6.752,-6.7545,-6.7551,-6.7621,-6.7577,-6.762,-6.7607,-6.7563,-6.7568,-6.7678,-6.7683,-6.7611,-6.7809,-6.772,-6.7736,-6.7802,-6.7829,-6.785,-6.7847,-6.7508,0,0,0,0,0,-6.7464,-6.7528,-6.7528,-6.7641,-6.7655,-6.7636,-6.7669,-6.7641,-6.7665,-6.7675,-6.7677,-6.7701,-6.7755,-6.7792,-6.7842,-6.7977,-6.7978,-6.8041,-6.8063,-6.808,-6.8095,-6.8166,-6.8194,-6.7899,-6.7899,-6.7898,0,0,-6.7548,-6.7558,-6.7602,-6.7664,-6.768,-6.7747,-6.7646,-6.772,-6.7769,-6.7686,-6.7783,-6.7785,-6.7809,-6.7928,-6.7981,-6.7936,-6.8177,-6.8096,-6.8111,-6.8116,-6.8182,-6.821,-6.8234,-6.7907,-6.7906,-6.7904,0,0,-6.7736,-6.7751,-6.7846,-6.7865,-6.7891,-6.7877,-6.79,-6.7913,-6.7911,-6.8008,-6.7947,-6.8003,-6.8098,-6.8117,-6.814,-6.8334,-6.8284,-6.8351,-6.8464,-6.8533,-6.8557,-6.8577,-6.8646,-6.8671,-6.8366,-6.8366,-6.8366,0,-6.7838,-6.7937,-6.79,-6.798,-6.8008,-6.7937,-6.8032,-6.8051,-6.8091,-6.8112,-6.8061,-6.8179,-6.819,-6.8312,-6.8359,-6.838,-6.8403,-6.8349,-6.8557,-6.8577,-6.8595,-6.866,-6.8686,-6.8374,-6.8373,-6.8372,-6.8372,0,-6.806,-6.813,-6.8203,-6.8245,-6.8282,-6.8369,-6.8344,-6.8385,-6.8354,-6.8345,-6.8444,-6.8454,-6.8504,-6.8531,-6.8501,-6.8649,-6.862,-6.8564,-6.8473,-6.8632,-6.8692,-6.8717,-6.8385,-6.8383,-6.838,-6.8378,0,0,-6.8324,-6.8344,-6.8372,-6.839,-6.8413,-6.8465,-6.8547,-6.8597,-6.8633,-6.8663,-6.8731,-6.8812,-6.876,-6.8785,-6.8756,-6.8817,-6.897,-6.8753,-6.8753,-6.8793,-6.9132,-6.9175,-6.9204,-6.8937,-6.8941,-6.8945,-6.913,0,-6.851,-6.8654,-6.8623,-6.8764,-6.8827,-6.8759,-6.883,-6.8852,-6.8845,-6.8896,-6.8888,-6.8947,-6.8873,-6.8888,-6.8945,-6.8939,-6.9037,-6.8925,-6.8998,-6.9001,-6.8995,-6.9236,-6.9281,-6.9455,-6.9153,-6.9157,-6.916,0,-6.8747,-6.8787,-6.8935,-6.8947,-6.8972,-6.9037,-6.908,-6.913,-6.9152,-6.9142,-6.9171,-6.913,-6.921,-6.9118,-6.9227,-6.9152,-6.9179,-6.9181,-6.9186,-6.9192,-6.9091,-6.9248,-6.951,-6.9537,-6.9197,-6.9194,-6.9191,0,-6.8925,-6.9015,-6.9115,-6.9132,-6.9149,-6.9196,-6.9205,-6.9221,-6.9253,-6.929,-6.9309,-6.9355,-6.938,-6.9415,-6.9387,-6.9323,-6.95,-6.9406,-6.9494,-6.9495,-6.9535,-6.9532,-6.9805,-6.9553,-6.9552,-6.9552,-6.9551,0,-6.9136,-6.9229,-6.9195,-6.9257,-6.9358,-6.932,-6.9421,-6.9421,-6.9436,-6.9495,-6.9439,-6.9495,-6.9454,-6.9507,-6.9485,-6.9578,-6.9589,-6.9583,-6.9577,-6.9589,-6.959,-6.9606,-6.9594,-6.9558,-6.9557,-6.9556,-6.9554,0,-6.9352,-6.9333,-6.9437,-6.9444,-6.9448,-6.9522,-6.9527,-6.9583,-6.9572,-6.9648,-6.9663,-6.9645,-6.9704,-6.9679,-6.9741,-6.9726,-6.9846,-6.9823,-6.9839,-6.9833,-6.9922,-6.9914,-7.0215,-7.0252,-6.9976,-6.9979,-6.9981,0,-6.9489,-6.9559,-6.9573,-6.9609,-6.9622,-6.9681,-6.9713,-6.9678,-6.9713,-6.9742,-6.9795,-6.9849,-6.989,-6.9987,-6.9978,-7.0025,-7.0002,-7.0105,-7.0009,-7.0019,-7.0004,-7.0,-7.0006,-7.0124,-7.0127,-7.013,-7.0132,0,-6.9733,-6.972,-6.9769,-6.9815,-6.9855,-6.989,-6.9919,-6.9951,-6.9916,-6.9959,-7.0019,-7.0051,-7.0114,-7.0167,-7.0208,-7.0215,-7.0168,-7.0162,-7.0185,-7.0198,-7.0205,-7.0202,-6.9891,-7.0156,-7.0153,-7.0151,-7.015,-7.0149,-6.9913,-6.9972,-6.9991,-7.0048,-7.0066,-7.0094,-7.0147,-7.0142,-7.0192,-7.0241,-7.0216,-7.0286,-7.0304,-7.0354,-7.0367,-7.042,-7.0379,-7.0412,-7.0421,-7.043,-7.0441,-7.0196,-7.0427,-7.0426,-7.0426,-7.0425,-7.0424,0,-7.0154,-7.0163,-7.0216,-7.0258,-7.0302,-7.0254,-7.0283,-7.0323,-7.0385,-7.0406,-7.0448,-7.0516,-7.0568,-7.0563,-7.061,-7.0653,-7.0633,-7.0667,-7.0663,-7.0666,-7.0475,-7.045,-7.0683,-7.0683,-7.0683,-7.0683,-7.0682,-7.0682,-7.0285,-7.0382,-7.0371,-7.0475,-7.0482,-7.0551,-7.0571,-7.0596,-7.0613,-7.0692,-7.0735,-7.0732,-7.0742,-7.0789,-7.0834,-7.0831,-7.0851,-7.0894,-7.0883,-7.0705,-7.0679,-7.0655,-7.0632,-7.0898,-7.0898,-7.1069,-7.1071,-7.1072]}]]